Regional Weather Roundup
Issued by NWS

Home | Current Version | Previous Version | Text Only | Print | Product List | Glossary On
Versions: 1 2 3 4 5 6 7 8 9 10 11 12 13 14 15 16 17 18 19 20 21 22 23 24 25 26 27 28 29 30 31 32 33 34 35 36 37 38 39 40 41 42 43 44 45 46 47 48 49 50
000
ASUS44 KEWX 290412
RWRTX
SOUTH TEXAS REGIONAL WEATHER ROUNDUP
NATIONAL WEATHER SERVICE AUSTIN/SAN ANTONIO TX
1100 PM CDT FRI APR 28 2017

NOTE: "FAIR" INDICATED FEW OR NO CLOUDS BELOW 12,000 FEET WITH NO
SIGNIFICANT WEATHER AND/OR OBSTRUCTIONS TO VISIBILITY.

* - THESE STATIONS ARE NOT NWS OR FAA STATIONS...AND ARE NOT SUBJECT
    TO NWS AND FAA QUALITY CONTROL.

TXZ171-172-183>190-290500-
TEXAS HILL COUNTRY AND EDWARDS PLATEAU

CITY           SKY/WX    TMP DP  RH WIND       PRES   REMARKS
JUNCTION       CLOUDY    76  66  71 E5        29.58R
*LLANO         CLOUDY    81  70  69 SE13      29.62R
BURNET         CLOUDY    78  68  71 SE13G31   29.63R
*HORSESHOE BAY CLOUDY    80  69  69 SE10G21   29.60R
*KERRVILLE     PTCLDY    79  73  80 SE12      29.60R
*FREDERICKSBRG CLOUDY    78  67  69 SE13      29.61R
*ROCKSPRINGS   CLOUDY    75  68  78 SE8       29.62S
*BOERNE STAGE  CLEAR     75  68  78 SE10G18   29.63R
*CASTROVILLE   CLEAR     80  68  66 E8G18     29.59R
HONDO          PTCLDY    82  70  66 SE15      29.57R
*UVALDE        PTCLDY    80  71  74 E12       29.53S
DEL RIO        MOCLDY    78  69  73 E3        29.51R
LAUGHLIN AFB   MOCLDY    75  69  82 E3        29.52R
CARRIZO SPRGS  CLEAR     86  64  48 SE10G17   29.50R
*EAGLE PASS    NOT AVBL
$$

TXZ173-191>194-202-209-217>225-228-290500-
CENTRAL AND SOUTH CENTRAL TEXAS

CITY           SKY/WX    TMP DP  RH WIND       PRES   REMARKS
GEORGETOWN     CLOUDY    79  70  73 SE15G23   29.63R
AUSTIN/BERGSTM MOCLDY    79  72  79 SE18G26   29.61R
AUSTIN/MABRY   CLOUDY    79  72  79 S16G24    29.63R
*AUSTIN/EXEC   CLOUDY    77  73  88 SE16G23   29.63R
*LAGO VISTA    CLOUDY    78  71  77 SE12G24   29.65R
SAN MARCOS     PTCLDY    75  72  88 SE14G24   29.62S
NEW BRAUNFELS  CLEAR     78  72  81 SE18      29.60R
RANDOLPH AFB   PTCLDY    77  76  97 SE15      29.60R
PT SAN ANTONIO CLEAR     79  71  76 SE20      29.56R
SAN ANTONIO    PTCLDY    78  71  79 SE20G26   29.60R
STINSON FIELD  LGT RAIN  80  71  74 SE17G25   29.57R
*LA GRANGE     CLOUDY    79  75  86 SE12G18   29.63R
*GIDDINGS      MOCLDY    77  71  82 S12G22    29.65R
*GONZALES      CLOUDY    78  76  91 SE14      29.63R
$$

TXZ163>164-176>182-195>201-210>213-226-227-235-290500-
SOUTHEAST TEXAS

CITY           SKY/WX    TMP DP  RH WIND       PRES   REMARKS
COLLEGE STN    CLOUDY    78  73  84 SE20G26   29.66R
*BRYAN         CLOUDY    77  72  84 SE20G28   29.67R
*CALDWELL      NOT AVBL
*CROCKETT      PTCLDY    79  73  83 S13G22    29.72R
*BRENHAM       CLOUDY    79  74  83 SE15G21   29.68R
HUNTSVILLE     CLOUDY    79  72  79 SE9G21    29.69R
CONROE         CLOUDY    78  74  87 SE12G35   29.71R
HOUSTON BUSH   CLOUDY    81  73  76 S17       29.71R
HOUSTON HOBBY  CLOUDY    79  75  87 S13G23    29.71S
*HOUSTON SW AP CLOUDY    78  74  86 SE10G18   29.72S FOG
PEARLAND       CLOUDY    82  75  79 S14G20    29.73R HAZE
HOUSTON HOOKS  CLOUDY    81  73  76 SE12G24   29.70R
ELLINGTON FLD  CLOUDY    81  73  78 SE14      29.74S
SUGAR LAND     CLOUDY    80  75  84 SE18      29.70R
*HOUSTON EXEC  MOCLDY    77  73  88 SE17G23   29.70S FOG
*CLEVELAND MUN CLOUDY    79  74  85 S7        29.74S FOG
*WHARTON       PTCLDY    77  73  85 SE13      29.69S FOG
*COLUMBUS      CLOUDY    78  73  87 SE13G24   29.67S
*EAGLE LAKE    CLOUDY    79  76  91 SE15G22   29.68R
$$

TXZ214>216-236>238-290500-
THE UPPER TEXAS COAST

CITY           SKY/WX    TMP DP  RH WIND       PRES   REMARKS
*ORANGE        CLOUDY    79  76  90 SE12G18   29.81R FOG
PORT ARTHUR    CLOUDY    80  75  84 SE15      29.77R
GALVESTON      CLOUDY    80  77  90 SE13      29.74S FOG
ANGLETON       CLOUDY    81  76  84 SE17G24   29.71S
*BAY CITY      MOCLDY    79  76  90 SE12      29.70R FOG
PALACIOS       CLOUDY    78  75  90 SE18G28   29.68R
$$

TXZ229>234-239>247-290500-
TEXAS COASTAL BEND AND RIO GRANDE PLAINS

CITY           SKY/WX    TMP DP  RH WIND       PRES   REMARKS
VICTORIA       MOCLDY    78  74  87 SE20      29.65S FOG
*BEEVILLE      CLOUDY   N/A N/A N/A SE16G24   29.60S
ROCKPORT       MOCLDY    79  75  87 SE17G26   29.62R FOG
*PORT ARANSAS  PTCLDY    78  75  90 SE17G28   29.62R FOG
*PORT LAVACA   CLOUDY    78  77  97 SE16G22   29.66S FOG
*INGLESIDE     CLEAR     80  75  86 SE13G25   29.61S
CORPUS CHRISTI PTCLDY    79  74  84 SE23G30   29.60R
CORPUS NAS     CLEAR     80  76  87 SE24G36   29.59S FOG
*ROBSTOWN      CLEAR     80  74  83 SE18      29.60R
ALICE          CLOUDY    77  74  90 SE13      29.57R
KINGSVILLE NAS CLOUDY    79  77  94 SE17G25   29.58R
COTULLA        CLEAR     88  67  49 SE17G25   29.51R HX  91
*FAITH RANCH   CLEAR     90  66  45 SE13G21   29.51R HX  92
LAREDO         CLEAR     85  70  60 SE18      29.53R
$$

TXZ248>255-290500-
DEEP SOUTH TEXAS

CITY           SKY/WX    TMP DP  RH WIND       PRES   REMARKS
BROWNSVILLE    MOCLDY    80  75  84 SE14      29.60R
PORT ISABEL    CLOUDY    80  76  87 SE21G29   29.59R FOG
*SOUTH PADRE   NOT AVBL
HARLINGEN      CLEAR     79  75  87 SE17      29.58R
*HEBBRONVILLE  CLEAR     78  67  69 SE13      29.58R
MCALLEN        CLOUDY    81  74  79 SE14G24   29.57R
*WESLACO       CLEAR     79  72  80 S14G20    29.56R
FALFURRIAS     CLEAR     80  73  79 SE13      29.57R
EDINBURG       PTCLDY    81  72  74 SE10G17   29.58R
*ZAPATA        CLEAR     82  69  66 SE10      29.53R
$$

TXZ213>215-236>238-242>244-246-247-251-254-255-290500-
CMAN STATIONS

STATION/POSITION TIME  TEMP    WIND        PRES    WAVE
                       AIR SEA DIR/SP/G            HT/PER
                 (UTC) (F)     (DEG/KT/KT) (MB)    (FT/S)
SABINE PASS      0348   77 78  140/ 14/ 18 1009.8
SEA RIM ST PARK  0300   77     140/ 11/ 14 1008.2
NORTH JETTY/GLS  0348          130/ 14/ 17   N/A
EAGLE POINT      0348   78 77  170/ 16/ 19 1006.6
MORGANS POINT    0348   78 76  140/  6/ 10 1006.8
MISSION/ARANSAS  0300   79                 1003.0
PORT O`CONNOR    0348   78     140/ 21/ 25 1004.0
PORT ARANSAS     0300   78 80  130/ 19/ 21 1002.5
MALAQUITE BEACH  0348   79 80  120/ 24/ 28 1002.9
BAFFIN BAY       0348   79 80   80/ 18/ 23 1002.3
PORT ISABEL      0348   79 80  170/ 10/ 13 1002.3
$$

GMZ080-GMZ150>470-290500-
OFFSHORE BUOY REPORTS

STATION/POSITION TIME  TEMP    WIND        PRES    WAVE
                       AIR SEA DIR/SP/G            HT/PER
                 (UTC) (F)     (DEG/KT/KT) (MB)    (FT/S)
20 E GALVESTON   0250   77 76  150/ 17/ 21 1006.3    5/ 8
90 E PT ARANSAS  0250   78 77  120/ 17/ 21 1004.7    6/ 8
35 NE PT MANSFLD 0350   78     140/ 21/ 25 1001.9    6/ 8
200 E PT ISABEL  0250   80 79  130/ 19/ 23 1006.0    8/ 7
$$




USA.gov is the U.S. government's official web portal to all federal, state and local government web resources and services.